Weather History for Louisville Bowman, KY

Change the Weather History Date:

Saturday, January 10, 2015

  Actual Average Record
Temperature  
Mean Temperature 17 °F 34 °F  
Max Temperature 27 °F 42 °F 66 °F (1975)
Min Temperature 7 °F 26 °F -11 °F (1982)
Degree Days  
Heating Degree Days 48 31  
Month to date heating degree days 374 304  
Since 1 July heating degree days 2118 1968  
Cooling Degree Days 0 0  
Month to date cooling degree days 0 0  
Year to date cooling degree days 0 0  
Moisture  
Dew Point 1 °F    
Average Humidity 51    
Maximum Humidity 69    
Minimum Humidity 32    
Precipitation  
Precipitation 0.00 in 0.12 in 1.45 in (1975)
Month to date precipitation 0.37 1.20  
Year to date precipitation 0.37 1.20  
Sea Level Pressure  
Sea Level Pressure 30.58 in    
Wind  
Wind Speed 3 mph (South)    
Max Wind Speed 14 mph    
Max Gust Speed 18 mph    
Visibility 10 miles    
Events      
T = Trace of Precipitation, MM = Missing Value Source: NWS Daily Summary

Daily Weather History Graph

Daily Weather History Graph

Search for Another Location

Airport:

Trip Planner

Search our weather history database for the weather conditions in past years. The results will help you decide how hot, cold, wet, or windy it might be!

Date:

Astronomy

Jan. 10, 2015 Rise Set
Actual Time 7:59 AM EST 5:41 PM EST
Civil Twilight 7:30 AM EST 6:10 PM EST
Nautical Twilight 6:57 AM EST 6:43 PM EST
Astronomical Twilight 6:25 AM EST 7:14 PM EST
Moon 11:04 PM EST (1/10) 10:49 AM EST (1/10)
Length of Visible Light 10h 40m
Length of Day
9h 41m
Waning Gibbous, 75% of the Moon is Illuminated
Jan 10
Waning Gibbous
Jan 13
Last Quarter
Jan 20
New
Jan 26
First Quarter
Feb 3
Full

Hourly Weather History & Observations

Time (EST) Temp. Windchill Dew Point Humidity Pressure Visibility Wind Dir Wind Speed Gust Speed Precip Events Conditions
12:53 AM 12.0 °F 0.5 °F 1.0 °F 61% 30.60 in 10.0 mi NW 8.1 mph - N/A   Clear
1:53 AM 12.0 °F 2.7 °F -0.0 °F 59% 30.61 in 10.0 mi NW 5.8 mph - N/A   Clear
2:53 AM 10.0 °F 0.4 °F -0.0 °F 64% 30.63 in 10.0 mi NW 5.8 mph - N/A   Clear
3:53 AM 10.0 °F - -0.0 °F 64% 30.62 in 10.0 mi Calm Calm - N/A   Clear
4:53 AM 9.0 °F - -2.0 °F 61% 30.62 in 10.0 mi Calm Calm - N/A   Clear
5:53 AM 8.1 °F - -0.9 °F 67% 30.61 in 10.0 mi Calm Calm - N/A   Clear
6:53 AM 8.1 °F - -0.9 °F 67% 30.63 in 10.0 mi Calm Calm - N/A   Clear
7:53 AM 8.1 °F - -0.0 °F 70% 30.63 in 10.0 mi Calm Calm - N/A   Clear
8:53 AM 9.0 °F 2.4 °F -0.0 °F 67% 30.63 in 10.0 mi SSE 3.5 mph - N/A   Clear
9:53 AM 12.0 °F 4.1 °F -0.0 °F 59% 30.66 in 10.0 mi SSE 4.6 mph - N/A   Clear
10:53 AM 14.0 °F 3.9 °F -0.0 °F 54% 30.66 in 10.0 mi SSE 6.9 mph - N/A   Clear
11:53 AM 16.0 °F 7.4 °F -0.9 °F 47% 30.64 in 10.0 mi SSW 5.8 mph - N/A   Clear
12:53 PM 19.0 °F - 1.0 °F 46% 30.60 in 10.0 mi North - - N/A   Clear
12:56 PM 19.9 °F 12.1 °F 1.0 °F 44% 30.57 in 10.0 mi Variable 5.8 mph - N/A   Clear
1:53 PM 23.0 °F 17.0 °F -0.0 °F 37% 30.57 in 10.0 mi SE 4.6 mph - N/A   Clear
2:53 PM 25.0 °F - -0.9 °F 33% 30.52 in 10.0 mi Calm Calm - N/A   Clear
3:53 PM 27.0 °F - -0.9 °F 30% 30.51 in 10.0 mi Calm Calm - N/A   Clear
4:53 PM 27.0 °F 21.6 °F -0.0 °F 31% 30.52 in 10.0 mi SSW 4.6 mph - N/A   Clear
5:53 PM 26.1 °F 21.9 °F 1.0 °F 34% 30.52 in 10.0 mi South 3.5 mph - N/A   Clear
6:53 PM 25.0 °F - 1.9 °F 37% 30.53 in 10.0 mi Calm Calm - N/A   Clear
7:53 PM 24.1 °F 18.2 °F 3.0 °F 40% 30.53 in 10.0 mi SSE 4.6 mph - N/A   Clear
8:53 PM 23.0 °F - 3.0 °F 42% 30.52 in 10.0 mi Calm Calm - N/A   Clear
9:53 PM 21.0 °F - 3.9 °F 48% 30.51 in 10.0 mi Calm Calm - N/A   Clear
10:53 PM 19.9 °F - 5.0 °F 52% 30.51 in 10.0 mi Calm Calm - N/A   Clear
11:53 PM 19.9 °F - 6.1 °F 55% 30.50 in 10.0 mi Calm Calm - N/A   Clear